Mountain Home, ID

2:51 AM MDT on August 23, 2017 (GMT -0600)
Mountain Home Air Force Base

Weather History for KMUO - November, 2011

Change the Weather History Date:

Saturday, November 26, 2011

  Actual Average Record
Temperature  
Mean Temperature 31 °F 34 °F  
Max Temperature 45 °F 43 °F 65 °F (1953)
Min Temperature 17 °F 25 °F -2 °F (1985)
Degree Days  
Heating Degree Days 34 31  
Month to date heating degree days 700 658  
Cooling Degree Days 0 0  
Month to date cooling degree days 0 0  
Moisture  
Dew Point 15 °F    
Average Humidity 56    
Maximum Humidity 84    
Minimum Humidity 30    
Precipitation  
Precipitation 0.00 in 0.05 in 0.44 in (1999)
Month to date precipitation 0.15 1.08  
Sea Level Pressure  
Sea Level Pressure 30.69 in    
Wind  
Wind Speed 8 mph (ESE)    
Max Wind Speed 23 mph    
Max Gust Speed 24 mph    
Visibility 10 miles    
Events      
T = Trace of Precipitation, MM = Missing Value Source: NWS Daily Summary

Daily Weather History Graph

Daily Weather History Graph

Search for Another Location

Airport or City:

Trip Planner

Search our weather history database for the weather conditions in past years. The results will help you decide how hot, cold, wet, or windy it might be!

Date:

Astronomy

Nov. 26, 2011 Rise Set
Actual Time 7:49 AM MST 5:11 PM MST
Civil Twilight 7:17 AM MST 5:43 PM MST
Nautical Twilight 6:42 AM MST 6:18 PM MST
Astronomical Twilight 6:08 AM MST 6:52 PM MST
Moon 9:26 AM MST (11/26) 6:46 PM MST (11/26)
Length of Visible Light 10h 25m
Length of Day
9h 22m
Waxing Crescent, 3% of the Moon is Illuminated
Nov 26
Waxing Crescent
Dec 2
First Quarter
Dec 10
Full
Dec 17
Last Quarter
Dec 24
New

Hourly Weather History & Observations

Time (MST) Temp. Windchill Dew Point Humidity Pressure Visibility Wind Dir Wind Speed Gust Speed Precip Events Conditions
12:55 AM 21.4 °F - 14.7 °F 75% 30.63 in 10.0 mi Calm Calm - N/A   Clear
1:55 AM 20.3 °F - 14.2 °F 77% 30.64 in 10.0 mi Calm Calm - N/A   Clear
2:55 AM 18.1 °F 12.9 °F 13.5 °F 82% 30.66 in 10.0 mi ENE 3.5 mph - N/A   Clear
3:55 AM 18.0 °F - 12.6 °F 79% 30.68 in 10.0 mi Calm Calm - N/A   Clear
4:55 AM 17.8 °F 9.6 °F 13.1 °F 82% 30.70 in 10.0 mi East 5.8 mph - N/A   Clear
5:55 AM 18.5 °F 6.8 °F 14.0 °F 83% 30.72 in 10.0 mi East 10.4 mph - N/A   Clear
6:55 AM 21.2 °F 8.9 °F 17.1 °F 84% 30.72 in 10.0 mi East 12.7 mph - N/A   Clear
7:55 AM 23.9 °F 11.7 °F 18.1 °F 79% 30.74 in 10.0 mi East 13.8 mph - N/A   Overcast
8:55 AM 25.3 °F 14.7 °F 18.1 °F 74% 30.77 in 10.0 mi ESE 11.5 mph - N/A   Scattered Clouds
9:55 AM 29.5 °F 17.6 °F 18.3 °F 63% 30.77 in 10.0 mi East 17.3 mph - N/A   Clear
10:55 AM 34.9 °F 23.9 °F 17.4 °F 49% 30.76 in 10.0 mi ESE 19.6 mph - N/A   Clear
11:55 AM 38.5 °F 27.8 °F 17.8 °F 43% 30.75 in 10.0 mi ESE 23.0 mph - N/A   Clear
12:55 PM 41.2 °F 32.4 °F 17.6 °F 39% 30.73 in 10.0 mi ESE 18.4 mph - N/A   Clear
1:55 PM 43.9 °F 35.9 °F 14.4 °F 30% 30.70 in 10.0 mi ESE 18.4 mph 24.2 mph N/A   Clear
2:55 PM 44.6 °F 36.6 °F 14.5 °F 30% 30.68 in 10.0 mi ESE 19.6 mph - N/A   Clear
3:55 PM 44.4 °F 36.9 °F 14.2 °F 30% 30.68 in 10.0 mi ESE 17.3 mph - N/A   Clear
4:55 PM 41.5 °F 35.4 °F 14.5 °F 33% 30.69 in 10.0 mi SE 10.4 mph - N/A   Clear
5:55 PM 37.2 °F 29.6 °F 13.5 °F 38% 30.69 in 10.0 mi ESE 11.5 mph - N/A   Clear
6:55 PM 34.3 °F 26.5 °F 13.8 °F 43% 30.69 in 10.0 mi ESE 10.4 mph - N/A   Clear
7:55 PM 31.1 °F 24.5 °F 13.5 °F 48% 30.69 in 10.0 mi ESE 6.9 mph - N/A   Clear
8:55 PM 33.1 °F 26.9 °F 13.5 °F 44% 30.67 in 10.0 mi SE 6.9 mph - N/A   Clear
9:55 PM 32.9 °F 24.7 °F 14.9 °F 48% 30.65 in 10.0 mi SE 10.4 mph - N/A   Clear
10:55 PM 32.4 °F 23.0 °F 14.4 °F 48% 30.63 in 10.0 mi SE 12.7 mph - N/A   Clear
11:55 PM 31.8 °F 21.4 °F 14.7 °F 49% 30.61 in 10.0 mi SE 15.0 mph - N/A   Clear